{"data":{"norad_id":56162,"intl_designator":"2023-050A","name":"CHECKMATE 8","alt_names":[],"object_type":"PAYLOAD","status":"ACTIVE","operator":null,"country":"US","launch_date":"2023-04-02","launch_site_code":"AFWTR","launch_vehicle":null,"mission":null,"orbit_class":"UNKNOWN","rcs_meters":null,"size_class":null,"mass_kg":null,"dimensions":null,"purposes":[],"wikipedia_slug":null,"has_3d_model":false,"image_url":null,"decayed_at":null,"tle_current":{"epoch":"2026-09-21T16:09:12.603456Z","epoch_age_seconds":85833,"freshness":"FRESH","line1":"1 56162U 23050A   26264.67306254  .00000065  00000+0  47763-4 0  9994","line2":"2 56162  81.0052 339.2300 0007340  67.9037 292.2898 13.84971528175500","mean_motion":13.84971528,"eccentricity":0.000734,"inclination_deg":81.0052,"raan_deg":339.23,"arg_perigee_deg":67.9037,"mean_anomaly_deg":292.2898,"bstar":4.7763e-5,"rev_number":17550,"period_min":103.97325655347,"perigee_km":940.92998508551,"apogee_km":951.68226759498,"semimajor_km":7324.4431263402,"source":"CELESTRAK","updated_at":"2026-09-22T09:00:25.729113Z"}}}